Kosmos-2197

operational
NORAD ID: 22034 Int'l Des: 1992-042 Owner: VVSR Country: RU
LEOCIRCULARPOLAR

关于 Kosmos-2197

正在加载描述...

实时位置

正在加载3D地球...

即将过境

高度历史

Altitude vs Time

uPlot chart will show altitude changes over time

两行轨道根数

1 22034U 92042A 26073.88549917 .00000050 00000-0 21485-3 0 9995
2 22034 82.5911 289.2096 0013353 126.4190 244.5977 12.64248619553377
Epoch: Mar 14, 2026 • Age: 10 hours

当前状态

高度 1410.6 km
速度 7.16 km/s
星下点 49.66°N, 20.48°E
发射日期 Jul 13, 1992
运行时间 33.6 years
类型 other

技术详情

分类 Payload
质量 225.00 kg
干质量 225.00 kg
总质量 225.00 kg
长度 1.60 m
直径 0.80 m
跨度 7.00 m
形状 Cyl + Ant
制造商 NPOPM
平台类型 Strela-3
阶段状态 In Orbit
所有者/国家 VVSR/RU

大型星座

Loading constellations...